This is the latest recevied weather packets stored in our database for station/object EA3IK-1. If no packets are shown the sender has not sent any weather packets the latest 10 day(s).
| Time | Temp. | Humidity | Pressure | Rain* | Wind** | Luminosity | Snow |
|---|---|---|---|---|---|---|---|
| 1777536561 | 18.33° C | 67% | 1015.7 hPa | 0 mm | - | - | - |
| 1777535660 | 17.78° C | 67% | 1015.5 hPa | 0 mm | - | - | - |
| 1777534760 | 17.22° C | 66% | 1015.4 hPa | 0 mm | - | - | - |
| 1777533859 | 16.67° C | 64% | 1015.4 hPa | 0 mm | - | - | - |
| 1777532958 | 16.11° C | 61% | 1015.5 hPa | 0 mm | - | - | - |
| 1777532057 | 16.11° C | 59% | 1015.3 hPa | 0 mm | - | - | - |
| 1777531156 | 16.11° C | 57% | 1015.4 hPa | 0 mm | - | - | - |
| 1777530255 | 15° C | 56% | 1015.1 hPa | 0 mm | - | - | - |
| 1777529355 | 15° C | 56% | 1015.2 hPa | 0 mm | - | - | - |
| 1777528454 | 14.44° C | 56% | 1015.1 hPa | 0 mm | - | - | - |
| 1777527553 | 14.44° C | 56% | 1015 hPa | 0 mm | - | - | - |
| 1777526652 | 14.44° C | 55% | 1014.9 hPa | 0 mm | - | - | - |
| 1777525751 | 14.44° C | 56% | 1014.6 hPa | 0 mm | - | - | - |
| 1777524850 | 13.89° C | 55% | 1014.5 hPa | 0 mm | - | - | - |
| 1777523950 | 13.89° C | 56% | 1014.3 hPa | 0 mm | - | - | - |
| 1777523049 | 14.44° C | 55% | 1014.1 hPa | 0 mm | - | - | - |
| 1777522148 | 14.44° C | 53% | 1014.2 hPa | 0 mm | - | - | - |
| 1777521247 | 13.89° C | 51% | 1014.4 hPa | 0 mm | - | - | - |
| 1777520346 | 13.89° C | 50% | 1014.4 hPa | 0 mm | - | - | - |
| 1777519445 | 13.89° C | 48% | 1014.3 hPa | 0 mm | - | - | - |
| 1777518544 | 13.89° C | 48% | 1014.3 hPa | 0 mm | - | - | - |
| 1777517643 | 13.89° C | 49% | 1014.2 hPa | 0 mm | - | - | - |
| 1777516743 | 13.89° C | 51% | 1014.3 hPa | 0 mm | - | - | - |
| 1777515842 | 14.44° C | 50% | 1014.1 hPa | 0 mm | - | - | - |
| 1777514941 | 14.44° C | 50% | 1014.2 hPa | 0 mm | - | - | - |
* Rain latest hour (hover to see other rain measurements)
** Current wind speed in m/s (hover to see current wind gust speed)